GALAXY 32 (G-32)

Last updated on Mon Jun 30 2025 00:02:47 GMT+0000 (Coordinated Universal Time)

1 54244U 22153B 25179.88725451 -.00000179 00000+0 00000+0 0 9992 2 54244 0.0163 46.9807 0001819 355.4373 103.2054 1.00271623 9606
UTC large
Height (km)
Speed (km/s)
/
Latitude / Longitude
Inclination (degrees)
Orbital Period (minutes)
Azimuth
Elevation
Range (km)
Doppler Factor

Next 0 passes for location: London (51.5072 / 0.1276)

Sorry there are no passes over London.